Regional Weather Roundup
Issued by NWS Kansas City/Pleasant Hill, MO

Home | Current Version | Previous Version | Text Only | Print | Product List | Glossary On
Versions: 1 2 3 4 5 6 7 8 9 10 11 12 13 14 15 16 17 18 19 20 21 22 23 24 25 26 27 28 29 30 31 32 33 34 35 36 37 38 39 40 41 42 43 44 45 46 47 48 49 50
000
ASUS43 KEAX 272111
RWREAX

WEATHER ROUNDUP FOR EASTERN KANSAS AND NORTHWEST MISSOURI
NATIONAL WEATHER SERVICE KANSAS CITY/PLEASANT HILL MO
300 PM CST THU NOV 27 2014

KSZ040-057-103>105-MOZ028-029-037-043-272200-
...KANSAS CITY METROPOLITAN AREA...

CITY           SKY/WX    TMP DP  RH WIND       PRES   REMARKS
K.C. INTL      MOSUNNY   35  22  58 SE6       30.41F WCI  30
K.C. DOWNTOWN  SUNNY     37  21  52 NE7       30.42F WCI  32
LEES SUMMIT    SUNNY     37  20  50 S6        30.42F WCI  32
OLATHE - IXD   SUNNY     37  20  50 S8        30.41F WCI  31
OLATHE - OJC   SUNNY     37  18  46 SW7       30.40F WCI  32
LAWRENCE       SUNNY     38  20  48 SE7       30.41F WCI  33

$$

MOZ001>008-011>017-020>025-030>033-038>040-044>046-053-054-272200-
...NORTHERN AND CENTRAL MISSOURI...

CITY           SKY/WX    TMP DP  RH WIND       PRES   REMARKS
ST. JOSEPH     SUNNY     31  16  54 E8        30.43F WCI  23
MOSBY          CLEAR     32  21  64 E6        30.45F WCI  26
WARRENSBURG    MOSUNNY   34  23  64 E3        30.45S
WHITEMAN AFB   SUNNY     34  21  59 SW2       30.44F
CLINTON        SUNNY     37  25  60 CALM      30.45F
SEDALIA        CLOUDY    34  22  61 CALM      30.46F
WARSAW         NOT AVBL
MARSHALL       CLOUDY    32  23  69 W3        30.47S
CHILLICOTHE      N/A     29  16  58 CALM      30.47F
KIRKSVILLE     PTSUNNY   26  15  63 N7        30.45F WCI  18

$$

MOZ041-047>049-056>058-063>065-088>090-097-272200-
...EASTERN AND SOUTHERN MISSOURI...

CITY           SKY/WX    TMP DP  RH WIND       PRES   REMARKS
ST. LOUIS INTL PTSUNNY   34  21  59 NW10      30.45F WCI  26
SPIRIT OF STL  SUNNY     36  21  54 NW10      30.45S WCI  28
COLUMBIA       CLOUDY    34  23  64 NW8       30.44F WCI  27
JEFFERSON CITY CLOUDY    35  22  58 W5        30.47S WCI  31
MEXICO         SUNNY     36  27  69 NW8       30.44S WCI  29
ROLLA          CLOUDY    33  23  66 W6        30.41F WCI  28
LEBANON        SUNNY     41  23  48 W5        30.42F
OSAGE BEACH    CLOUDY    37  21  52 W5        30.45S WCI  34
SPRINGFIELD    SUNNY     42  20  41 S5        30.43F
BRANSON        MOSUNNY   45  25  45 NW6       30.44F
NEVADA         SUNNY     41  23  48 SW5       30.45F
JOPLIN         SUNNY     42  20  41 S3        30.44F
WEST PLAINS    SUNNY     42  19  39 W7        30.43F

$$

IAZ060-094-KSZ022-034>040-054-083-096-NEZ052-066-093-272200-
...KANSAS...SOUTHEAST NEBRASKA AND IOWA...

CITY           SKY/WX    TMP DP  RH WIND       PRES   REMARKS
TOPEKA         SUNNY     40  20  44 SE8       30.39F WCI  34
MANHATTAN      SUNNY     44  16  32 S12       30.34F
EMPORIA        SUNNY     41  16  36 S13       30.36F WCI  34
CHANUTE        SUNNY     42  20  41 S9        30.41F
WICHITA        MOSUNNY   46  15  28 S21       30.33F
OMAHA          PTSUNNY   22   6  50 SE12      30.39F WCI  10
LINCOLN        MOSUNNY   31  13  47 SE12      30.33F WCI  22
FALLS CITY     SUNNY     31  12  45 SE10      30.38F WCI  22
LAMONI         CLOUDY    20   9  62 CALM      30.42F
DES MOINES     PTSUNNY   13  -2  51 CALM      30.45F

$$



USA.gov is the U.S. government's official web portal to all federal, state and local government web resources and services.